Faribault, MN

2:27 AM CST on December 06, 2019 (GMT -0600)
Faribault Municipal

Weather History for KFBL - October, 2019

Change the Weather History Date:

Wednesday, October 30, 2019

  Actual Average Record
Temperature  
Mean Temperature 28 °F -  
Max Temperature 33 °F 54 °F 83 °F (1950)
Min Temperature 24 °F 33 °F 11 °F (1988)
Degree Days  
Heating Degree Days 36    
Moisture  
Dew Point 19 °F    
Average Humidity 66    
Maximum Humidity 80    
Minimum Humidity 52    
Precipitation  
Precipitation 0.00 in - - ()
Sea Level Pressure  
Sea Level Pressure 30.21 in    
Wind  
Wind Speed 1 mph (WNW)    
Max Wind Speed 7 mph    
Max Gust Speed -    
Visibility 10 miles    
Events Snow    
Averages and records for this station are not official NWS values.
T = Trace of Precipitation, MM = Missing Value Source: NWS Daily Summary

Daily Weather History Graph

Daily Weather History Graph

Search for Another Location

Airport or City:

Astronomy

Oct. 30, 2019 Rise Set
Actual Time 7:47 AM CDT 6:05 PM CDT
Civil Twilight 7:17 AM CDT 6:35 PM CDT
Nautical Twilight 6:43 AM CDT 7:09 PM CDT
Astronomical Twilight 6:09 AM CDT 7:43 PM CDT
Moon 10:36 AM CDT (10/30) 8:08 PM CDT (10/30)
Length of Visible Light 11h 18m
Length of Day
10h 18m
Waxing Crescent, 9% of the Moon is Illuminated
Oct 30
Waxing Crescent
Nov 4
First Quarter
Nov 12
Full
Nov 19
Last Quarter
Nov 26
New

Hourly Weather History & Observations

Time (CDT) Temp. Windchill Dew Point Humidity Pressure Visibility Wind Dir Wind Speed Gust Speed Precip Events Conditions
2:36 PM - - - N/A% 30.27 in 10.0 mi Calm Calm - N/A   Mostly Cloudy
3:05 PM - - - N/A% 30.26 in 10.0 mi Calm Calm - N/A   Overcast
3:15 PM - - - N/A% 30.25 in 10.0 mi Calm Calm - N/A   Overcast
3:36 PM 33.8 °F - 17.6 °F 52% 30.24 in 4.0 mi Calm Calm - N/A Snow Light Snow
3:55 PM 32.0 °F 25.6 °F 17.6 °F 55% 30.24 in 10.0 mi WNW 6.9 mph - N/A   Mostly Cloudy
4:15 PM 32.0 °F 25.6 °F 17.6 °F 55% 30.24 in 10.0 mi West 6.9 mph - N/A   Mostly Cloudy
4:16 PM 32.0 °F 25.6 °F 17.6 °F 55% 30.24 in 10.0 mi West 6.9 mph - N/A   Mostly Cloudy
4:35 PM 33.8 °F - 17.6 °F 52% 30.23 in 10.0 mi Calm Calm - N/A   Overcast
4:55 PM 32.0 °F 27.5 °F 17.6 °F 55% 30.23 in 10.0 mi WNW 4.6 mph - N/A   Overcast
4:56 PM 32.0 °F 27.5 °F 17.6 °F 55% 30.23 in 10.0 mi WNW 4.6 mph - N/A   Overcast
5:15 PM 32.0 °F - 17.6 °F 55% 30.23 in 10.0 mi Calm Calm - N/A   Mostly Cloudy
5:35 PM 32.0 °F - 17.6 °F 55% 30.22 in 10.0 mi Calm Calm - N/A   Overcast
5:55 PM 30.2 °F - 17.6 °F 60% 30.21 in 10.0 mi Calm Calm - N/A   Scattered Clouds
6:15 PM 30.2 °F - 17.6 °F 60% 30.21 in 10.0 mi Calm Calm - N/A   Clear
6:35 PM 30.2 °F - 17.6 °F 60% 30.22 in 10.0 mi Calm Calm - N/A   Clear
6:36 PM 30.2 °F - 17.6 °F 60% 30.22 in 10.0 mi Calm Calm - N/A   Clear
6:55 PM 30.2 °F - 17.6 °F 60% 30.22 in 10.0 mi Calm Calm - N/A   Scattered Clouds
6:56 PM 30.2 °F - 17.6 °F 60% 30.22 in 10.0 mi Calm Calm - N/A   Scattered Clouds
7:15 PM 30.2 °F 25.4 °F 19.4 °F 64% 30.22 in 10.0 mi WNW 4.6 mph - N/A   Scattered Clouds
7:35 PM 30.2 °F - 19.4 °F 64% 30.21 in 10.0 mi Calm Calm - N/A   Clear
7:55 PM 28.4 °F - 19.4 °F 69% 30.21 in 10.0 mi Calm Calm - N/A   Clear
8:15 PM 28.4 °F - 19.4 °F 69% 30.20 in 10.0 mi Calm Calm - N/A   Clear
8:16 PM 28.4 °F - 19.4 °F 69% 30.20 in 10.0 mi Calm Calm - N/A   Clear
8:35 PM 28.4 °F - 19.4 °F 69% 30.20 in 10.0 mi Calm Calm - N/A   Clear
8:36 PM 28.4 °F - 19.4 °F 69% 30.20 in 10.0 mi Calm Calm - N/A   Clear
8:55 PM 28.4 °F - 19.4 °F 69% 30.19 in 10.0 mi Calm Calm - N/A   Clear
8:56 PM 28.4 °F - 19.4 °F 69% 30.19 in 10.0 mi Calm Calm - N/A   Clear
9:15 PM 26.6 °F - 19.4 °F 74% 30.19 in 10.0 mi Calm Calm - N/A   Clear
9:16 PM 26.6 °F - 19.4 °F 74% 30.19 in 10.0 mi Calm Calm - N/A   Clear
9:35 PM 26.6 °F - 19.4 °F 74% 30.19 in 10.0 mi Calm Calm - N/A   Clear
9:55 PM 26.6 °F - 19.4 °F 74% 30.20 in 10.0 mi Calm Calm - N/A   Clear
10:15 PM 26.6 °F - 19.4 °F 74% 30.21 in 10.0 mi Calm Calm - N/A   Clear
10:36 PM 24.8 °F - 19.4 °F 80% 30.20 in 10.0 mi Calm Calm - N/A   Clear
10:55 PM 24.8 °F - 19.4 °F 80% 30.19 in 10.0 mi Calm Calm - N/A   Clear
11:15 PM 24.8 °F - 19.4 °F 80% 30.19 in 10.0 mi Calm Calm - N/A   Clear
11:16 PM 24.8 °F - 19.4 °F 80% 30.19 in 10.0 mi Calm Calm - N/A   Clear
11:35 PM 24.8 °F - 17.6 °F 74% 30.18 in 10.0 mi Calm Calm - N/A   Clear
11:55 PM 24.8 °F - 17.6 °F 74% 30.18 in 10.0 mi Calm Calm - N/A   Clear